Regional Weather Roundup
Issued by NWS

Home | Current Version | Previous Version | Graphics & Text | Print | Product List | Glossary On
Versions: 1 2 3 4 5 6 7 8 9 10 11 12 13 14 15 16 17 18 19 20 21 22 23 24 25 26 27
000
ASUS45 KTFX 260010
RWRMT
MONTANA REGIONAL WEATHER ROUNDUP
NATIONAL WEATHER SERVICE GREAT FALLS MT
500 PM MST SAT FEB 25 2017

NOTE: "FAIR" INDICATES FEW OR NO CLOUDS BELOW 12000 FEET WITH NO
SIGNIFICANT WEATHER AND/OR OBSTRUCTIONS TO VISIBILITY.

MTZ001>007-043-260100-
WEST OF THE DIVIDE

CITY           SKY/WX    TMP DP  RH WIND       PRES   REMARKS
KALISPELL      CLOUDY    29  17  61 S7        29.83F WCI  22
MISSOULA       CLOUDY    31  14  49 W16       29.90F WCI  20
BUTTE          CLOUDY    23   4  44 W14G24    29.75F WCI  11
MULLAN PASS    LGT SNOW  15  14  95 VRB5      29.75F VSB 3/4
ANACONDA         N/A     25   1  36 SW21      29.79S WCI  10
DEER LODGE       N/A     27   3  36 W16G22    29.80S WCI  14
EUREKA           N/A     30  16  55 E8        29.84S WCI  23
HAMILTON         N/A     30   7  37 SW5       29.90S
LIBBY            N/A     30  16  55 SE8       29.85S WCI  23
RONAN            N/A     28  18  66 SE2       29.93F
$$

MTZ008-052>055-260100-
SOUTHWEST MONTANA

CITY           SKY/WX    TMP DP  RH WIND       PRES   REMARKS
BOZEMAN        PTSUNNY   27  11  51 W10       29.77S WCI  17
DILLON         MOSUNNY   25   7  46 W24       29.78S WCI   9
W YELLOWSTONE  CLOUDY    12   7  79 SW16G25   29.77S HAZE    WCI  -4
ENNIS          PTSUNNY   25   9  50 S13       29.83S WCI  13
THREE FORKS      N/A     30  30 100 W12       29.79S WCI  20
$$

MTZ009-010-012-014-046-048-049-054-260100-
EAST SLOPES AND CENTRAL MONTANA

CITY           SKY/WX    TMP DP  RH WIND       PRES   REMARKS
CUT BANK       MOCLDY    25  13  60 W29G39    29.60F WCI   8
GREAT FALLS    CLEAR     31   6  35 W26       29.65S WCI  17
MALMSTROM AFB  CLEAR     32   6  33 W23G31    29.67F WCI  19
HELENA         MOSUNNY   29   7  39 W21G39    29.76R WCI  16
AUGUSTA          N/A     27   6  41 W29G36    29.63S WCI  11
BOWMANS CRNR     N/A     26   6  41 W17G28    29.65S WCI  14
CHOTEAU          N/A     30   7  37 W21G26    29.64S WCI  17
POWER            N/A     30   5  35 W14       29.63F WCI  19
RAYNESFORD       N/A     27  10  48 W17G26    29.65F WCI  15
ULM              N/A     30  10  41 MISG      29.68S
$$

MTZ011-013-016-021-045-047-050-051-260100-
NORTH CENTRAL MONTANA

CITY           SKY/WX    TMP DP  RH WIND       PRES   REMARKS
HAVRE          CLOUDY    33  16  49 W14       29.64S WCI  23
LEWISTOWN      PTCLDY    26   9  48 W16G25    29.63F WCI  14
N BAR RANCH      N/A     25   7  46 W16G22    29.64S WCI  12
CHINOOK          N/A     30  18  59 NW8       29.65S WCI  23
DENTON         MOCLDY    30  10  43 W18       29.61F WCI  17
FORT BENTON      N/A     36   7  30 MISG      29.66F
GEYSER         MOCLDY    28   8  42 W23G33    29.62F WCI  14
GRASS RANGE    MOCLDY    28  13  52 W21G26    29.60F WCI  15
JUDITH GAP       N/A     23   6  48 NW15      29.63F WCI  10
ROY              N/A     27  16  63 MISG      29.62F
STANFORD       MOCLDY    26   9  48 NW17      29.62F WCI  13
WINIFRED       MOCLDY    28  13  53 W10       29.62F WCI  18
$$

MTZ017>020-022>027-061-062-260100-
NORTHEAST MONTANA

CITY           SKY/WX    TMP DP  RH WIND       PRES   REMARKS
GLASGOW        CLEAR     26  18  71 N10       29.67F WCI  16
JORDAN           N/A     30  16  56 W13       29.67F WCI  20
SIDNEY         FLURRIES  26  22  84 NW12      29.68R WCI  16
WOLF POINT     CLOUDY    24  17  74 NE9       29.71R WCI  14
PLENTYWOOD       N/A     14  10  85 N5        29.70S
POPLAR           N/A     19  16  86 N9        29.71R WCI   9
SCOBEY           N/A     17   6  62 SW7       29.68F WCI   8
$$

MTZ028>42-056>058-260100-
SOUTHCENTRAL AND SOUTHEAST MONTANA

CITY           SKY/WX    TMP DP  RH WIND       PRES   REMARKS
BAKER          PTCLDY    25  21  85 W9        29.67F WCI  15
BILLINGS       PTCLDY    29  13  51 W21G29    29.69F WCI  16
LIVINGSTON     CLOUDY    26  11  52 W24G31    29.70F WCI  11
MILES CITY     PTCLDY    32  14  47 NW14      29.69S WCI  22
BIG TIMBER     HAZE      23  16  74 W37G44    29.67F VSB 1/2 WCI   4
EKALAKA          N/A     25  15  65 W8        29.66F WCI  16
FORSYTH          N/A     32  12  43 W13G20    29.69F WCI  22
HARLOWTON        N/A     26   9  49 NW31G37   29.64F WCI   9
LAUREL           N/A     29   8  41 W16       29.70F WCI  17
$$

REGIONAL REPORTS...DAKOTAS

CITY           SKY/WX    TMP DP  RH WIND       PRES   REMARKS
WILLISTON      MIX PCPN  19  15  84 NE18      29.69S FOG     WCI   4
MINOT          LGT SNOW  19  16  88 N9        29.70F VSB 1   WCI   8
DICKINSON      CLOUDY    24  20  84 W12       29.64F WCI  13
BEACH            N/A    N/A N/A N/A MISG        N/A
CROSBY         CLOUDY    16  14  93 N8        29.73S WCI   5
TIOGA          LGT SNOW  16  16 100 NE13      29.68S WCI   2
WATFORD CITY     N/A     27  23  86 W14       29.65S WCI  15
BISMARCK       CLEAR     27  20  75 S6        29.73F WCI  20
GRAND FORKS    MOCLDY    26  14  60 N9        29.75F WCI  17
FARGO          CLOUDY    30  22  72 W7        29.76F WCI  23
BUFFALO SD       N/A     29  22  75 W18       29.61F WCI  16
RAPID CITY     CLEAR     30  22  72 N9        29.71F WCI  22
$$

REGIONAL REPORTS...WYOMING/IDAHO/WASHINGTON

CITY           SKY/WX    TMP DP  RH WIND       PRES   REMARKS
GILLETTE       PTCLDY    29  12  49 NW3       29.66F
SHERIDAN       MOCLDY    30  17  58 NE8       29.68F WCI  22
BUFFALO WY     PTCLDY    23  12  62 S6        29.66F WCI  16
CODY           CLEAR     25   3  38 W20G31    29.69S WCI  11
YELLOWSTONE LA   N/A      9   0  67 VRB6      29.72R WCI  -1
IDAHO FALLS    MOSUNNY   19  12  74 SW18      29.95S WCI   4
SALMON         CLOUDY    32  10  40 CALM      29.88S
BOISE          PTSUNNY   39  15  37 NW7       30.03F
SPOKANE        CLOUDY    33  22  63 SW13      29.93F WCI  24
$$

REGIONAL REPORTS...ALBERTA

CITY           SKY/WX    TMP DP  RH WIND       PRES   REMARKS
EDMONTON       LGT SNOW  21  18  86 NW5       29.62R
CALGARY        CLOUDY    25  18  74 E10       29.51F WCI  15
LETHBRIDGE     CLOUDY    30  12  47 W29G41    29.57F WCI  15
MEDICINE HAT   CLOUDY    27  19  74 S2        29.61F
WATERTON GATE    N/A     25  10  54 SW26G43     N/A  WCI   9
CARDSTON         N/A     28  12  50 W9          N/A  WCI  20
MILK RIVER       N/A     30  16  55 W17         N/A  WCI  18
$$

REGIONAL REPORTS...SASKATCHEWAN

CITY           SKY/WX    TMP DP  RH WIND       PRES   REMARKS
SWIFT CURRENT  PTCLDY    14  10  85 S6        29.62F WCI   5
REGINA         PTCLDY    14   5  67 NW7       29.70F WCI   4
SASKATOON      PTCLDY    16   7  67 SW6       29.69F WCI   7
CYPRESS HILLS    N/A     18   9  68 W5          N/A
VAL MARIE        N/A     19  14  79 E7          N/A  WCI  10
ROCKGLEN         N/A     12   7  79 N6          N/A  WCI   3
$$




USA.gov is the U.S. government's official web portal to all federal, state and local government web resources and services.